Flag for South Africa Weather past 2 weeks in Bloemfontein, South Africa

Now
61 °F

Refreshingly cool.


Feels Like: 61 °F
Forecast: 52 / 88 °F
Wind: No wind

Location: Bloemfontein Airport

Current Time: Oct 23, 2014 at 12:47:50 AM

Latest Report: Oct 22, 2014 at 11:00 PM


Visibility: N/A

Pressure: 30.12 "Hg

Humidity: 29%

Dew point: 28 °F

Location of BloemfonteinLocation

Historic Weather in Bloemfontein — Graph

°F

Bloemfontein temperature yesterday

Maximum temperature yesterday: 90 °F (at 4:00 PM)
Minimum temperature yesterday: 57 °F (at 5:00 AM)
Average temperature yesterday: 75 °F

Past Weeks' High & Low Weather Summary

 TemperatureHumidityPressure
High90 °F (Oct 21, 3:00 PM)88% (Oct 12, 6:00 AM)30.27 "Hg (Oct 12, 6:00 AM)
Low39 °F (Oct 18, 5:00 AM)5% (Oct 21, 5:00 PM)29.77 "Hg (Oct 16, 12:00 PM)
Average68 °F36%30.08 "Hg
* Reported Oct 7 11:00 PM — Oct 22 11:00 PM, Bloemfontein, Weather by CustomWeather, © 2014

Note: Actual official high and low records may vary slightly from our data, if they occured in-between our weather recording intervals... More about our weather records

Advertising

Bloemfontein weather history for previous 24 hours

 ConditionsComfort  
Time TempWeatherWind HumidityBarometerVisibility
11:00 PM
Oct 22
61 °FRefreshingly cool.No wind29%30.12 "HgN/A
8:00 PM73 °FClear.3 mph19%30.09 "Hg10 mi
7:00 PM84 °FClear.5 mph18%30.07 "Hg10 mi
6:00 PM88 °FPassing clouds.3 mph13%30.07 "HgN/A
5:00 PM90 °FPassing clouds.6 mph14%30.07 "HgN/A
4:00 PM90 °FPassing clouds.10 mph15%30.07 "HgN/A
2:00 PM88 °FSunny.7 mph13%30.15 "Hg10 mi
1:00 PM84 °FPassing clouds.8 mph23%30.15 "HgN/A
12:00 PM82 °FPassing clouds.9 mph28%30.18 "HgN/A
11:00 AM81 °FSunny.12 mph26%30.21 "Hg10 mi
10:00 AM77 °FSunny.13 mph36%30.21 "Hg10 mi
9:00 AM72 °FSunny.16 mph44%30.24 "Hg10 mi
8:00 AM66 °FSunny.14 mph49%30.27 "Hg10 mi
7:00 AM61 °FSunny.14 mph63%30.24 "Hg10 mi
6:00 AM57 °FSunny.12 mph72%30.21 "Hg10 mi
5:00 AM57 °FSunny.8 mph67%30.21 "Hg10 mi
2:00 AM61 °FRefreshingly cool.12 mph59%30.18 "HgN/A
Weather by CustomWeather, © 2014

See weather overviewHow to use our weather pages